Time,TemperatureF,DewpointF,PressureIn,WindDirection,WindDirectionDegrees,WindSpeedMPH,WindSpeedGustMPH,Humidity,HourlyPrecipIn,Conditions,Clouds,dailyrainin,SoftwareType,DateUTC
2013-08-17 00:00:00,58.5,50.0,29.44,West,270,0.0,0.0,72,29.72,,,29.72,WeatherTracker,2013-08-17 04:00:00,
2013-08-17 00:05:00,58.5,50.0,29.44,West,270,0.0,0.0,72,29.72,,,29.72,WeatherTracker,2013-08-17 04:05:00,
2013-08-17 00:10:00,58.6,50.0,29.44,West,270,0.0,0.0,73,29.72,,,29.72,WeatherTracker,2013-08-17 04:10:00,
2013-08-17 00:15:00,58.6,50.0,29.44,West,270,0.0,0.0,73,29.72,,,29.72,WeatherTracker,2013-08-17 04:15:00,
2013-08-17 00:20:00,58.6,50.0,29.44,West,270,0.0,0.0,73,29.72,,,29.72,WeatherTracker,2013-08-17 04:20:00,
2013-08-17 00:25:00,58.6,50.0,29.44,West,270,0.0,0.0,73,29.72,,,29.72,WeatherTracker,2013-08-17 04:25:00,
2013-08-17 00:35:00,58.5,50.0,29.44,West,270,0.0,0.0,74,29.72,,,29.72,WeatherTracker,2013-08-17 04:35:00,
2013-08-17 00:40:00,58.6,50.0,29.44,West,270,0.0,0.0,74,29.72,,,29.72,WeatherTracker,2013-08-17 04:40:00,
2013-08-17 00:50:00,58.6,51.8,29.44,West,270,0.0,0.0,75,29.72,,,29.72,WeatherTracker,2013-08-17 04:50:00,
2013-08-17 01:00:00,58.6,51.8,29.44,West,270,0.0,0.0,76,29.72,,,29.72,WeatherTracker,2013-08-17 05:00:00,
2013-08-17 01:05:00,58.8,51.8,29.44,West,270,0.0,0.0,76,29.72,,,29.72,WeatherTracker,2013-08-17 05:05:00,
2013-08-17 01:15:00,58.8,51.8,29.44,West,270,0.0,0.0,76,29.72,,,29.72,WeatherTracker,2013-08-17 05:15:00,
2013-08-17 01:20:00,58.8,51.8,29.44,West,270,0.0,0.0,76,29.72,,,29.72,WeatherTracker,2013-08-17 05:20:00,
2013-08-17 01:25:00,58.8,51.8,29.44,West,270,0.0,0.0,77,29.72,,,29.72,WeatherTracker,2013-08-17 05:25:00,
2013-08-17 01:35:00,59.0,51.8,29.44,West,270,0.0,0.0,77,29.72,,,29.72,WeatherTracker,2013-08-17 05:35:00,
2013-08-17 01:40:00,59.0,51.8,29.44,West,270,0.0,0.0,77,29.72,,,29.72,WeatherTracker,2013-08-17 05:40:00,
2013-08-17 01:50:00,59.2,51.8,29.41,West,270,0.0,0.0,77,29.72,,,29.72,WeatherTracker,2013-08-17 05:50:00,
2013-08-17 02:00:00,59.2,51.8,29.44,West,270,0.0,0.0,77,29.72,,,29.72,WeatherTracker,2013-08-17 06:00:00,
2013-08-17 02:05:00,59.2,51.8,29.44,West,270,0.0,0.0,78,29.72,,,29.72,WeatherTracker,2013-08-17 06:05:00,
2013-08-17 02:15:00,59.5,53.6,29.41,West,270,0.0,0.0,79,29.72,,,29.72,WeatherTracker,2013-08-17 06:15:00,
2013-08-17 02:25:00,59.5,53.6,29.41,West,270,0.0,0.0,78,29.72,,,29.72,WeatherTracker,2013-08-17 06:25:00,
2013-08-17 02:30:00,59.4,53.6,29.41,West,270,0.0,0.0,77,29.72,,,29.72,WeatherTracker,2013-08-17 06:30:00,
2013-08-17 02:35:00,59.4,53.6,29.41,West,270,0.0,0.0,77,29.72,,,29.72,WeatherTracker,2013-08-17 06:35:00,
2013-08-17 02:45:00,59.4,53.6,29.41,West,270,0.0,0.0,77,29.72,,,29.72,WeatherTracker,2013-08-17 06:45:00,
2013-08-17 02:50:00,59.2,51.8,29.41,West,270,0.0,1.0,77,29.72,,,29.72,WeatherTracker,2013-08-17 06:50:00,
2013-08-17 03:00:00,59.2,51.8,29.41,West,270,0.0,0.0,78,29.72,,,29.72,WeatherTracker,2013-08-17 07:00:00,
2013-08-17 03:10:00,59.2,53.6,29.41,West,270,0.0,0.0,79,29.72,,,29.72,WeatherTracker,2013-08-17 07:10:00,
2013-08-17 03:15:00,59.2,53.6,29.41,West,270,0.0,0.0,79,29.72,,,29.72,WeatherTracker,2013-08-17 07:15:00,
2013-08-17 03:25:00,59.4,53.6,29.41,West,270,0.0,0.0,79,29.72,,,29.72,WeatherTracker,2013-08-17 07:25:00,
2013-08-17 03:35:00,59.4,53.6,29.41,West,270,1.0,0.0,78,29.72,,,29.72,WeatherTracker,2013-08-17 07:35:00,
2013-08-17 03:45:00,59.5,53.6,29.41,South,180,0.0,0.0,78,29.72,,,29.72,WeatherTracker,2013-08-17 07:45:00,
2013-08-17 03:50:00,59.7,53.6,29.41,South,180,1.0,1.0,79,29.72,,,29.72,WeatherTracker,2013-08-17 07:50:00,
2013-08-17 03:55:00,59.7,53.6,29.41,SE,135,1.0,0.0,79,29.72,,,29.72,WeatherTracker,2013-08-17 07:55:00,
2013-08-17 04:00:00,59.7,53.6,29.38,SE,135,1.0,0.0,79,29.72,,,29.72,WeatherTracker,2013-08-17 08:00:00,
2013-08-17 04:05:00,59.9,53.6,29.38,ESE,112,2.0,2.0,79,29.72,,,29.72,WeatherTracker,2013-08-17 08:05:00,
2013-08-17 04:10:00,60.1,53.6,29.38,ENE,67,2.0,2.0,79,29.72,,,29.72,WeatherTracker,2013-08-17 08:10:00,
2013-08-17 04:20:00,60.3,53.6,29.38,SSE,157,0.0,0.0,78,29.72,,,29.72,WeatherTracker,2013-08-17 08:20:00,
2013-08-17 04:30:00,60.3,53.6,29.41,SE,135,0.0,1.0,78,29.72,,,29.72,WeatherTracker,2013-08-17 08:30:00,
2013-08-17 04:35:00,60.4,53.6,29.41,ESE,112,1.0,0.0,77,29.72,,,29.72,WeatherTracker,2013-08-17 08:35:00,
2013-08-17 04:45:00,60.4,53.6,29.41,ENE,67,1.0,0.0,77,29.72,,,29.72,WeatherTracker,2013-08-17 08:45:00,
2013-08-17 04:55:00,60.6,53.6,29.41,South,180,0.0,0.0,76,29.72,,,29.72,WeatherTracker,2013-08-17 08:55:00,
2013-08-17 05:00:00,60.6,53.6,29.41,South,180,0.0,0.0,76,29.72,,,29.72,WeatherTracker,2013-08-17 09:00:00,
2013-08-17 05:05:00,60.6,53.6,29.41,WNW,292,1.0,1.0,76,29.72,,,29.72,WeatherTracker,2013-08-17 09:05:00,
2013-08-17 05:15:00,60.6,53.6,29.41,ESE,112,1.0,2.0,75,29.72,,,29.72,WeatherTracker,2013-08-17 09:15:00,
2013-08-17 05:20:00,60.6,53.6,29.41,East,90,2.0,2.0,75,29.72,,,29.72,WeatherTracker,2013-08-17 09:20:00,
2013-08-17 05:30:00,60.6,53.6,29.41,NE,45,1.0,0.0,74,29.72,,,29.72,WeatherTracker,2013-08-17 09:30:00,
2013-08-17 05:35:00,60.6,53.6,29.41,East,90,2.0,2.0,74,29.72,,,29.72,WeatherTracker,2013-08-17 09:35:00,
2013-08-17 05:45:00,60.6,51.8,29.41,NNW,337,2.0,2.0,73,29.72,,,29.72,WeatherTracker,2013-08-17 09:45:00,
2013-08-17 05:55:00,60.6,51.8,29.41,SSE,157,0.0,0.0,73,29.72,,,29.72,WeatherTracker,2013-08-17 09:55:00,
2013-08-17 06:00:00,60.6,53.6,29.44,SSE,157,0.0,0.0,74,29.72,,,29.72,WeatherTracker,2013-08-17 10:00:00,
2013-08-17 06:05:00,60.4,51.8,29.44,SE,135,0.0,0.0,73,29.72,,,29.72,WeatherTracker,2013-08-17 10:05:00,
2013-08-17 06:10:00,60.4,51.8,29.44,ESE,112,1.0,0.0,74,29.72,,,29.72,WeatherTracker,2013-08-17 10:10:00,
2013-08-17 06:15:00,60.3,53.6,29.41,South,180,0.0,0.0,75,29.72,,,29.72,WeatherTracker,2013-08-17 10:15:00,
2013-08-17 06:20:00,60.3,53.6,29.41,SSE,157,1.0,1.0,75,29.72,,,29.72,WeatherTracker,2013-08-17 10:20:00,
2013-08-17 06:30:00,60.3,53.6,29.44,ENE,67,0.0,0.0,77,29.72,,,29.72,WeatherTracker,2013-08-17 10:30:00,
2013-08-17 06:40:00,60.1,53.6,29.44,NNE,22,1.0,0.0,78,29.72,,,29.72,WeatherTracker,2013-08-17 10:40:00,
2013-08-17 06:45:00,60.1,53.6,29.44,SSW,202,0.0,0.0,78,29.72,,,29.72,WeatherTracker,2013-08-17 10:45:00,
2013-08-17 06:55:00,60.1,55.4,29.44,SSW,202,0.0,0.0,80,29.72,,,29.72,WeatherTracker,2013-08-17 10:55:00,
2013-08-17 07:05:00,60.1,55.4,29.47,SSW,202,0.0,0.0,80,29.72,,,29.72,WeatherTracker,2013-08-17 11:05:00,
2013-08-17 07:15:00,60.3,55.4,29.44,SSW,202,0.0,0.0,82,29.72,,,29.72,WeatherTracker,2013-08-17 11:15:00,
2013-08-17 07:20:00,60.1,55.4,29.44,SSW,202,0.0,0.0,81,29.72,,,29.72,WeatherTracker,2013-08-17 11:20:00,
2013-08-17 07:25:00,60.3,55.4,29.44,SSW,202,0.0,0.0,82,29.72,,,29.72,WeatherTracker,2013-08-17 11:25:00,
2013-08-17 07:30:00,60.3,55.4,29.47,SE,135,1.0,0.0,82,29.72,,,29.72,WeatherTracker,2013-08-17 11:30:00,
2013-08-17 07:40:00,60.3,55.4,29.47,ENE,67,0.0,0.0,82,29.72,,,29.72,WeatherTracker,2013-08-17 11:40:00,
2013-08-17 07:45:00,60.3,55.4,29.44,SSE,157,0.0,0.0,82,29.72,,,29.72,WeatherTracker,2013-08-17 11:45:00,
2013-08-17 07:50:00,60.4,55.4,29.44,SE,135,0.0,0.0,82,29.72,,,29.72,WeatherTracker,2013-08-17 11:50:00,
2013-08-17 07:55:00,60.4,55.4,29.44,SE,135,0.0,0.0,82,29.72,,,29.72,WeatherTracker,2013-08-17 11:55:00,
2013-08-17 08:05:00,60.4,55.4,29.44,SW,225,0.0,0.0,83,29.72,,,29.72,WeatherTracker,2013-08-17 12:05:00,
2013-08-17 08:15:00,60.6,55.4,29.44,East,90,1.0,1.0,83,29.72,,,29.72,WeatherTracker,2013-08-17 12:15:00,
2013-08-17 08:25:00,60.8,55.4,29.44,NE,45,1.0,0.0,83,29.72,,,29.72,WeatherTracker,2013-08-17 12:25:00,
2013-08-17 08:30:00,60.8,55.4,29.44,SW,225,0.0,0.0,83,29.72,,,29.72,WeatherTracker,2013-08-17 12:30:00,
2013-08-17 08:35:00,60.8,55.4,29.44,ESE,112,0.0,2.0,83,29.72,,,29.72,WeatherTracker,2013-08-17 12:35:00,
2013-08-17 08:40:00,60.8,55.4,29.44,ESE,112,1.0,0.0,83,29.72,,,29.72,WeatherTracker,2013-08-17 12:40:00,
2013-08-17 08:50:00,60.8,55.4,29.44,SSE,157,1.0,0.0,83,29.72,,,29.72,WeatherTracker,2013-08-17 12:50:00,
2013-08-17 09:00:00,61.0,55.4,29.41,ESE,112,2.0,2.0,83,29.72,,,29.72,WeatherTracker,2013-08-17 13:00:00,
2013-08-17 09:10:00,61.0,55.4,29.41,SSW,202,1.0,0.0,83,29.72,,,29.72,WeatherTracker,2013-08-17 13:10:00,
2013-08-17 09:15:00,61.0,55.4,29.44,ESE,112,1.0,3.0,83,29.72,,,29.72,WeatherTracker,2013-08-17 13:15:00,
2013-08-17 09:25:00,61.2,55.4,29.44,ESE,112,2.0,3.0,83,29.72,,,29.72,WeatherTracker,2013-08-17 13:25:00,
2013-08-17 09:30:00,61.2,57.2,29.44,ESE,112,2.0,2.0,84,29.72,,,29.72,WeatherTracker,2013-08-17 13:30:00,
2013-08-17 09:40:00,61.3,57.2,29.44,NNE,22,0.0,2.0,84,29.72,,,29.72,WeatherTracker,2013-08-17 13:40:00,
2013-08-17 09:50:00,61.7,57.2,29.44,SE,135,0.0,3.0,85,29.72,,,29.72,WeatherTracker,2013-08-17 13:50:00,
2013-08-17 09:55:00,61.9,57.2,29.44,SE,135,0.0,1.0,85,29.72,,,29.72,WeatherTracker,2013-08-17 13:55:00,
2013-08-17 10:00:00,62.2,57.2,29.44,SE,135,1.0,1.0,86,29.72,,,29.72,WeatherTracker,2013-08-17 14:00:00,
2013-08-17 10:10:00,62.6,59.0,29.44,ENE,67,1.0,2.0,88,29.72,,,29.72,WeatherTracker,2013-08-17 14:10:00,
2013-08-17 10:15:00,62.6,59.0,29.44,NE,45,1.0,1.0,89,29.72,,,29.72,WeatherTracker,2013-08-17 14:15:00,
2013-08-17 10:25:00,62.6,59.0,29.44,ESE,112,1.0,2.0,89,29.72,,,29.72,WeatherTracker,2013-08-17 14:25:00,
2013-08-17 10:35:00,63.1,60.8,29.44,East,90,1.0,1.0,90,29.72,,,29.72,WeatherTracker,2013-08-17 14:35:00,
2013-08-17 10:45:00,63.5,60.8,29.44,ESE,112,1.0,0.0,90,29.72,,,29.72,WeatherTracker,2013-08-17 14:45:00,
2013-08-17 10:55:00,64.2,60.8,29.44,East,90,2.0,0.0,90,29.72,,,29.72,WeatherTracker,2013-08-17 14:55:00,
2013-08-17 11:00:00,64.9,62.6,29.44,NE,45,0.0,4.0,91,29.72,,,29.72,WeatherTracker,2013-08-17 15:00:00,
2013-08-17 11:05:00,65.5,62.6,29.44,SSE,157,1.0,0.0,90,29.72,,,29.72,WeatherTracker,2013-08-17 15:05:00,
2013-08-17 11:15:00,65.7,60.8,29.44,NW,315,4.0,4.0,84,29.72,,,29.72,WeatherTracker,2013-08-17 15:15:00,
2013-08-17 11:20:00,65.8,60.8,29.44,SE,135,2.0,3.0,82,29.72,,,29.72,WeatherTracker,2013-08-17 15:20:00,
2013-08-17 11:25:00,66.2,60.8,29.44,North,0,2.0,2.0,82,29.72,,,29.72,WeatherTracker,2013-08-17 15:25:00,
2013-08-17 11:30:00,66.4,60.8,29.44,East,90,3.0,3.0,81,29.72,,,29.72,WeatherTracker,2013-08-17 15:30:00,
2013-08-17 11:40:00,66.2,57.2,29.44,NNW,337,2.0,3.0,73,29.72,,,29.72,WeatherTracker,2013-08-17 15:40:00,
2013-08-17 11:45:00,66.2,59.0,29.44,East,90,2.0,2.0,76,29.72,,,29.72,WeatherTracker,2013-08-17 15:45:00,
2013-08-17 11:55:00,66.2,59.0,29.44,SSE,157,2.0,5.0,77,29.72,,,29.72,WeatherTracker,2013-08-17 15:55:00,
2013-08-17 12:00:00,66.4,59.0,29.44,NE,45,3.0,3.0,77,29.72,,,29.72,WeatherTracker,2013-08-17 16:00:00,
2013-08-17 12:10:00,67.5,60.8,29.44,ENE,67,3.0,3.0,80,29.72,,,29.72,WeatherTracker,2013-08-17 16:10:00,
2013-08-17 12:20:00,67.6,60.8,29.44,NNE,22,2.0,3.0,77,29.72,,,29.72,WeatherTracker,2013-08-17 16:20:00,
2013-08-17 12:30:00,67.8,59.0,29.44,ESE,112,0.0,0.0,73,29.72,,,29.72,WeatherTracker,2013-08-17 16:30:00,
2013-08-17 12:35:00,68.4,59.0,29.44,East,90,1.0,1.0,73,29.72,,,29.72,WeatherTracker,2013-08-17 16:35:00,
2013-08-17 12:45:00,67.8,55.4,29.44,East,90,3.0,4.0,66,29.72,,,29.72,WeatherTracker,2013-08-17 16:45:00,
2013-08-17 12:50:00,67.5,55.4,29.44,NE,45,1.0,2.0,65,29.72,,,29.72,WeatherTracker,2013-08-17 16:50:00,
2013-08-17 12:55:00,67.3,55.4,29.44,East,90,2.0,2.0,67,29.72,,,29.72,WeatherTracker,2013-08-17 16:55:00,
2013-08-17 13:00:00,66.7,55.4,29.44,NE,45,3.0,3.0,65,29.72,,,29.72,WeatherTracker,2013-08-17 17:00:00,
2013-08-17 13:05:00,66.4,55.4,29.44,ENE,67,3.0,3.0,65,29.72,,,29.72,WeatherTracker,2013-08-17 17:05:00,
2013-08-17 13:10:00,66.6,55.4,29.44,ESE,112,3.0,3.0,68,29.72,,,29.72,WeatherTracker,2013-08-17 17:10:00,
2013-08-17 13:20:00,66.2,55.4,29.44,ESE,112,2.0,2.0,67,29.72,,,29.72,WeatherTracker,2013-08-17 17:20:00,
2013-08-17 13:25:00,66.0,55.4,29.44,ESE,112,2.0,2.0,67,29.72,,,29.72,WeatherTracker,2013-08-17 17:25:00,
2013-08-17 13:35:00,65.8,55.4,29.44,SE,135,4.0,4.0,67,29.72,,,29.72,WeatherTracker,2013-08-17 17:35:00,
2013-08-17 13:40:00,65.8,55.4,29.44,North,0,2.0,8.0,68,29.72,,,29.72,WeatherTracker,2013-08-17 17:40:00,
2013-08-17 13:50:00,65.8,55.4,29.44,SSE,157,2.0,2.0,69,29.72,,,29.72,WeatherTracker,2013-08-17 17:50:00,
2013-08-17 13:55:00,65.8,55.4,29.44,NNE,22,1.0,1.0,70,29.72,,,29.72,WeatherTracker,2013-08-17 17:55:00,
2013-08-17 14:05:00,65.7,55.4,29.44,West,270,2.0,3.0,70,29.72,,,29.72,WeatherTracker,2013-08-17 18:05:00,
2013-08-17 14:10:00,65.5,55.4,29.44,ENE,67,1.0,5.0,70,29.72,,,29.72,WeatherTracker,2013-08-17 18:10:00,
2013-08-17 14:20:00,65.3,55.4,29.44,ESE,112,2.0,2.0,71,29.72,,,29.72,WeatherTracker,2013-08-17 18:20:00,
2013-08-17 14:30:00,65.8,57.2,29.44,SE,135,1.0,2.0,73,29.72,,,29.72,WeatherTracker,2013-08-17 18:30:00,
2013-08-17 14:40:00,66.2,57.2,29.44,East,90,3.0,3.0,71,29.72,,,29.72,WeatherTracker,2013-08-17 18:40:00,
2013-08-17 14:50:00,66.2,57.2,29.44,East,90,1.0,1.0,71,29.72,,,29.72,WeatherTracker,2013-08-17 18:50:00,
2013-08-17 14:55:00,66.0,57.2,29.44,ESE,112,1.0,0.0,71,29.72,,,29.72,WeatherTracker,2013-08-17 18:55:00,
2013-08-17 15:00:00,65.8,55.4,29.44,ESE,112,2.0,2.0,71,29.72,,,29.72,WeatherTracker,2013-08-17 19:00:00,
2013-08-17 15:05:00,65.8,57.2,29.44,ENE,67,1.0,3.0,72,29.72,,,29.72,WeatherTracker,2013-08-17 19:05:00,
2013-08-17 15:10:00,65.8,57.2,29.44,SSE,157,2.0,2.0,72,29.72,,,29.72,WeatherTracker,2013-08-17 19:10:00,
2013-08-17 15:15:00,65.7,57.2,29.41,ENE,67,0.0,2.0,72,29.72,,,29.72,WeatherTracker,2013-08-17 19:15:00,
2013-08-17 15:20:00,65.3,57.2,29.41,East,90,2.0,2.0,72,29.72,,,29.72,WeatherTracker,2013-08-17 19:20:00,
2013-08-17 15:25:00,65.1,55.4,29.41,East,90,2.0,2.0,73,29.72,,,29.72,WeatherTracker,2013-08-17 19:25:00,
2013-08-17 15:30:00,64.9,57.2,29.41,ENE,67,2.0,3.0,74,29.72,,,29.72,WeatherTracker,2013-08-17 19:30:00,
2013-08-17 15:40:00,64.9,57.2,29.41,ENE,67,1.0,2.0,76,29.72,,,29.72,WeatherTracker,2013-08-17 19:40:00,
2013-08-17 15:50:00,64.9,59.0,29.41,South,180,0.0,1.0,79,29.72,,,29.72,WeatherTracker,2013-08-17 19:50:00,
2013-08-17 16:00:00,64.9,59.0,29.38,ESE,112,2.0,2.0,83,29.72,,,29.72,WeatherTracker,2013-08-17 20:00:00,
2013-08-17 16:05:00,65.1,60.8,29.38,ESE,112,1.0,0.0,84,29.72,,,29.72,WeatherTracker,2013-08-17 20:05:00,
2013-08-17 16:15:00,64.8,60.8,29.38,North,0,2.0,2.0,85,29.72,,,29.72,WeatherTracker,2013-08-17 20:15:00,
2013-08-17 16:25:00,64.8,60.8,29.38,SSE,157,0.0,1.0,86,29.72,,,29.72,WeatherTracker,2013-08-17 20:25:00,
2013-08-17 16:30:00,64.4,60.8,29.38,ESE,112,1.0,0.0,87,29.72,,,29.72,WeatherTracker,2013-08-17 20:30:00,
2013-08-17 16:35:00,64.4,60.8,29.38,East,90,2.0,0.0,87,29.72,,,29.72,WeatherTracker,2013-08-17 20:35:00,
2013-08-17 16:40:00,64.4,60.8,29.38,West,270,0.0,0.0,88,29.72,,,29.72,WeatherTracker,2013-08-17 20:40:00,
2013-08-17 16:50:00,64.2,60.8,29.38,SE,135,1.0,0.0,90,29.72,,,29.72,WeatherTracker,2013-08-17 20:50:00,
2013-08-17 16:55:00,64.2,60.8,29.38,ENE,67,2.0,2.0,90,29.72,,,29.72,WeatherTracker,2013-08-17 20:55:00,
2013-08-17 17:00:00,64.2,60.8,29.38,ESE,112,1.0,0.0,90,29.72,,,29.72,WeatherTracker,2013-08-17 21:00:00,
2013-08-17 17:05:00,64.2,62.6,29.38,East,90,1.0,2.0,91,29.72,,,29.72,WeatherTracker,2013-08-17 21:05:00,
2013-08-17 17:10:00,64.0,60.8,29.38,East,90,2.0,2.0,91,29.72,,,29.72,WeatherTracker,2013-08-17 21:10:00,
2013-08-17 17:20:00,64.2,62.6,29.38,East,90,1.0,0.0,92,29.72,,,29.72,WeatherTracker,2013-08-17 21:20:00,
2013-08-17 17:25:00,64.2,62.6,29.38,ESE,112,1.0,3.0,93,29.72,,,29.72,WeatherTracker,2013-08-17 21:25:00,
2013-08-17 17:35:00,64.0,62.6,29.38,ESE,112,0.0,2.0,93,29.72,,,29.72,WeatherTracker,2013-08-17 21:35:00,
2013-08-17 17:45:00,64.0,62.6,29.38,ESE,112,2.0,2.0,93,29.72,,,29.72,WeatherTracker,2013-08-17 21:45:00,
2013-08-17 17:50:00,64.0,62.6,29.38,SSE,157,0.0,0.0,93,29.72,,,29.72,WeatherTracker,2013-08-17 21:50:00,
2013-08-17 18:00:00,64.0,62.6,29.38,ESE,112,0.0,0.0,94,29.72,,,29.72,WeatherTracker,2013-08-17 22:00:00,
2013-08-17 18:10:00,64.0,62.6,29.38,ESE,112,1.0,3.0,94,29.72,,,29.72,WeatherTracker,2013-08-17 22:10:00,
2013-08-17 18:15:00,64.0,62.6,29.38,ENE,67,0.0,1.0,95,29.72,,,29.72,WeatherTracker,2013-08-17 22:15:00,
2013-08-17 18:20:00,64.0,62.6,29.38,NE,45,0.0,3.0,95,29.72,,,29.72,WeatherTracker,2013-08-17 22:20:00,
2013-08-17 18:30:00,63.9,62.6,29.38,ESE,112,0.0,0.0,95,29.72,,,29.72,WeatherTracker,2013-08-17 22:30:00,
2013-08-17 18:35:00,63.9,62.6,29.38,ESE,112,0.0,0.0,95,29.72,,,29.72,WeatherTracker,2013-08-17 22:35:00,
2013-08-17 18:45:00,63.9,62.6,29.38,NW,315,1.0,2.0,96,29.72,,,29.72,WeatherTracker,2013-08-17 22:45:00,
2013-08-17 18:55:00,63.9,62.6,29.38,North,0,2.0,3.0,96,29.72,,,29.72,WeatherTracker,2013-08-17 22:55:00,
2013-08-17 19:05:00,63.9,62.6,29.38,South,180,0.0,1.0,96,29.72,,,29.72,WeatherTracker,2013-08-17 23:05:00,
2013-08-17 19:10:00,63.9,62.6,29.38,ESE,112,1.0,0.0,96,29.72,,,29.72,WeatherTracker,2013-08-17 23:10:00,
2013-08-17 19:20:00,63.7,62.6,29.38,SE,135,0.0,1.0,97,29.72,,,29.72,WeatherTracker,2013-08-17 23:20:00,
2013-08-17 19:30:00,63.7,62.6,29.38,ESE,112,1.0,0.0,97,29.72,,,29.72,WeatherTracker,2013-08-17 23:30:00,
2013-08-17 19:35:00,63.5,62.6,29.38,SE,135,1.0,0.0,97,29.72,,,29.72,WeatherTracker,2013-08-17 23:35:00,
2013-08-17 19:45:00,63.5,62.6,29.38,NNE,22,1.0,4.0,97,29.72,,,29.72,WeatherTracker,2013-08-17 23:45:00,
2013-08-17 19:55:00,63.5,62.6,29.38,ESE,112,1.0,0.0,97,29.72,,,29.72,WeatherTracker,2013-08-17 23:55:00,
2013-08-17 20:00:00,63.5,62.6,29.41,North,0,1.0,0.0,97,29.72,,,29.72,WeatherTracker,2013-08-18 00:00:00,
2013-08-17 20:10:00,63.5,64.4,29.41,SE,135,0.0,0.0,98,29.72,,,29.72,WeatherTracker,2013-08-18 00:10:00,
2013-08-17 20:20:00,63.5,64.4,29.41,SW,225,0.0,0.0,98,29.72,,,29.72,WeatherTracker,2013-08-18 00:20:00,
2013-08-17 20:30:00,63.5,64.4,29.41,SW,225,0.0,0.0,98,29.72,,,29.72,WeatherTracker,2013-08-18 00:30:00,
2013-08-17 20:35:00,63.5,64.4,29.41,SE,135,1.0,0.0,98,29.72,,,29.72,WeatherTracker,2013-08-18 00:35:00,
2013-08-17 20:40:00,63.3,62.6,29.41,SE,135,0.0,0.0,98,29.72,,,29.72,WeatherTracker,2013-08-18 00:40:00,
2013-08-17 20:45:00,63.5,64.4,29.41,NW,315,0.0,0.0,98,29.72,,,29.72,WeatherTracker,2013-08-18 00:45:00,
2013-08-17 20:55:00,63.3,62.6,29.41,SE,135,0.0,0.0,98,29.72,,,29.72,WeatherTracker,2013-08-18 00:55:00,
2013-08-17 21:05:00,63.3,62.6,29.41,NE,45,1.0,3.0,98,29.72,,,29.72,WeatherTracker,2013-08-18 01:05:00,
2013-08-17 21:15:00,63.3,62.6,29.41,NE,45,0.0,2.0,98,29.72,,,29.72,WeatherTracker,2013-08-18 01:15:00,
2013-08-17 21:20:00,63.3,62.6,29.41,East,90,0.0,0.0,98,29.72,,,29.72,WeatherTracker,2013-08-18 01:20:00,
2013-08-17 21:30:00,63.7,64.4,29.41,ENE,67,1.0,2.0,98,29.72,,,29.72,WeatherTracker,2013-08-18 01:30:00,
2013-08-17 21:40:00,64.4,64.4,29.41,SSE,157,0.0,0.0,98,29.72,,,29.72,WeatherTracker,2013-08-18 01:40:00,
2013-08-17 21:45:00,64.6,64.4,29.41,SE,135,0.0,0.0,98,29.72,,,29.72,WeatherTracker,2013-08-18 01:45:00,
2013-08-17 21:55:00,64.9,64.4,29.41,SE,135,2.0,2.0,98,29.72,,,29.72,WeatherTracker,2013-08-18 01:55:00,
2013-08-17 22:05:00,64.9,64.4,29.41,SSE,157,1.0,0.0,98,29.72,,,29.72,WeatherTracker,2013-08-18 02:05:00,
2013-08-17 22:10:00,64.8,64.4,29.41,ENE,67,1.0,0.0,98,29.72,,,29.72,WeatherTracker,2013-08-18 02:10:00,
2013-08-17 22:15:00,64.8,64.4,29.41,ESE,112,1.0,0.0,98,29.72,,,29.72,WeatherTracker,2013-08-18 02:15:00,
2013-08-17 22:25:00,65.5,66.2,29.41,ESE,112,4.0,4.0,98,29.72,,,29.72,WeatherTracker,2013-08-18 02:25:00,
2013-08-17 22:30:00,65.5,66.2,29.41,SE,135,1.0,4.0,98,29.72,,,29.72,WeatherTracker,2013-08-18 02:30:00,
2013-08-17 22:40:00,65.7,66.2,29.41,ESE,112,0.0,0.0,98,29.72,,,29.72,WeatherTracker,2013-08-18 02:40:00,
2013-08-17 22:50:00,65.7,66.2,29.44,ESE,112,1.0,0.0,98,29.72,,,29.72,WeatherTracker,2013-08-18 02:50:00,
2013-08-17 22:55:00,65.7,66.2,29.44,ENE,67,0.0,0.0,98,29.72,,,29.72,WeatherTracker,2013-08-18 02:55:00,
2013-08-17 23:00:00,65.7,66.2,29.44,ENE,67,1.0,2.0,98,29.72,,,29.72,WeatherTracker,2013-08-18 03:00:00,
2013-08-17 23:10:00,65.7,66.2,29.44,North,0,0.0,2.0,98,29.72,,,29.72,WeatherTracker,2013-08-18 03:10:00,
2013-08-17 23:15:00,65.5,66.2,29.44,East,90,0.0,0.0,98,29.72,,,29.72,WeatherTracker,2013-08-18 03:15:00,
2013-08-17 23:25:00,65.5,66.2,29.44,ESE,112,1.0,0.0,98,29.72,,,29.72,WeatherTracker,2013-08-18 03:25:00,
2013-08-17 23:30:00,65.5,66.2,29.44,East,90,0.0,0.0,98,29.72,,,29.72,WeatherTracker,2013-08-18 03:30:00,
2013-08-17 23:35:00,65.5,66.2,29.44,SE,135,0.0,0.0,98,29.72,,,29.72,WeatherTracker,2013-08-18 03:35:00,
2013-08-17 23:40:00,65.5,66.2,29.44,SE,135,0.0,0.0,98,29.72,,,29.72,WeatherTracker,2013-08-18 03:40:00,
2013-08-17 23:50:00,65.5,66.2,29.41,ESE,112,0.0,0.0,98,29.72,,,29.72,WeatherTracker,2013-08-18 03:50:00,